STARLINK-11508, 62515

Orbit data source: Space-Track

STARLINK-11508, 62515 is a payload satellite owned by SpaceX/Seattle (US) in LEO that was launched on Wed, 08 Jan 2025 UTC via an FALCON 9 launch vehicle from the Air Force Eastern Test Range (AFETR). Payload-class satellites include a variety of spacecraft equipped with specific instruments for various scientific and technological missions. These include communications satellites like Starlink; space stations such as the ISS; scientific satellites like the Hubble; Earth observation satellites from companies like Planet Labs, Umbra, and HawkEye 360; GPS; miniature CubeSats for education and research; and military/defense satellites.

Loading next visibility...
Identifier
62515, 2025-004E
Orbit
LEO
Country
Flag of USUS
Related business
Manufacturer
SpaceX/Seattle
Mission
Operational Commercial Communications
Bus & Motor
STARLINK V2MD, Unknown motor
Mass
960 kg wet, ~910 kg dry
Launch date (UTC)
2025-01-08 (1 year ago)
Launch vehicle
FALCON 9
Launch site
Air Force Eastern Test Range (AFETR)
Object type
Payload
Rocket body
Debris
Shape & HBR
Box + 2 Pan, 18.1 m
Radar Cross Section
36.964 m², Large (>1 m²)

Expand to show TLE details & history
Last TLE update: 9 hours ago

TLE from 9 hours ago
0 STARLINK-11508
1 62515U 25004E   26037.99902623  .00268633  00000-0  20156-2 0  9992
2 62515  42.9958 255.5466 0001018   0.1036 359.9832 15.71010325 62384
Epoch: 2026-02-06T23:58Z
TLE epoch observation values (Epoch: 2026-02-06T23:58:35.866Z)
Latitude
0.00001°
Longitude
118.76832°
Altitude
355.094 km
Speed
7.698 km/s
True Right ascension
17h 02m 11s
True Declination
0° 00' 00"
Sunlit
Object was in daylight at epoch
Visualization orbit readout
Latitude
Unknown
Longitude
Unknown
Altitude
Unknown
Speed
Unknown
Apparent Right ascension
Unknown
Apparent Declination
Unknown
Sunlit
N/A
Visualization observer readout
Local Sidereal Time
11:31:53
Azimuth
Unknown
Elevation
Unknown
Doppler factor
Unknown
Orbital elements
Apogee altitude
358.676 km
Perigee altitude
357.305 km
Semi-major axis
6,736.128 km
Eccentricity
0.0001
Inclination
42.9958°
RAAN
255.5466°
Arg. of periapsis
0.1036°
True anomaly
359.9832°
Mean anomaly
359.9832°
Eccentric anomaly
359.9832°
Mean motion
3.9258 °/min
Orbital period
91.7 mins
BSTAR
0.0020156
Loading maneuver chart data...
Computing Atmospheric mass density...
Loading historical data...
Loading historical data...
Loading historical data...
Loading historical data...
Loading historical data...
Loading historical data...
Loading historical data...

Documentation

Showing up to 5 results
|